Regional Weather Roundup
Issued by NWS

Home | Current Version | Previous Version | Graphics & Text | Print | Product List | Glossary On
Versions: 1 2 3 4 5 6 7 8 9 10 11 12 13 14 15 16 17 18 19 20 21 22 23 24 25 26 27 28 29 30 31 32 33 34 35 36 37 38 39 40 41 42 43 44 45 46 47 48 49 50
000
ASUS43 KLOT 080412
RWRIL

ILLINOIS REGIONAL WEATHER ROUNDUP
NATIONAL WEATHER SERVICE CHICAGO/ROMEOVILLE IL
1100 PM CDT TUE JUL 07 2015

NOTE: "FAIR" INDICATES FEW OR NO CLOUDS BELOW 12,000 FEET WITH NO
SIGNIFICANT WEATHER AND/OR OBSTRUCTIONS TO VISIBILITY.

* THESE STATIONS ARE NOT UNDER NWS QUALITY CONTROL. THEY ALSO MAY NOT
  REPORT WEATHER SUCH AS PRECIPITATION OR FOG.

ILZ001-002-007-009-015-016-024-080500-
NORTHWEST ILLINOIS

CITY           SKY/WX    TMP DP  RH WIND       PRES   REMARKS
MOLINE         MOCLDY    62  57  83 CALM      30.09R
STERLING*      CLOUDY    63  54  72 NE9       30.10S
SAVANNA*       MOCLDY    61  52  73 NE5       30.11S
$$

ILZ003-004-008-010-011-017-018-080500-
NORTH CENTRAL ILLINOIS

CITY           SKY/WX    TMP DP  RH WIND       PRES   REMARKS
ROCKFORD       MOCLDY    58  51  78 E3        30.13R
FREEPORT*      MOCLDY    54  52  90 CALM      30.13S
ROCHELLE*      MOCLDY    55  53  91 E3        30.12S
DE KALB*       MOCLDY    53  49  88 E5        30.12F
PERU*          MOCLDY    59  52  79 E6        30.11S
$$

ILZ005-006-012>014-019>023-080500-
NORTHEAST ILLINOIS

CITY           SKY/WX    TMP DP  RH WIND       PRES   REMARKS
CHICAGO-OHARE  MOCLDY    56  46  69 N6        30.11R
CHICAGO-MIDWAY MOCLDY    60  45  57 N7        30.10S
AURORA         MOCLDY    57  49  74 E5        30.11S
LANSING*       PTCLDY    57  47  67 N6        30.10F
JOLIET*        PTCLDY    57  50  75 NE3       30.11S
WAUKEGAN       CLEAR     50  48  93 NW3       30.10S
DUPAGE AIRPORT PTCLDY    54  48  80 NE5       30.11S
KANKAKEE*      PTCLDY    57  51  78 N6        30.11S
WHEELING       PTCLDY    55  47  74 CALM      30.12S
MORRIS*        PTCLDY    57  51  81 CALM      30.07F
ROMEOVILLE*    PTCLDY    55  48  78 NE5       30.11S
NORTHERLY ISL    N/A     58  47  66 NW10        N/A
$$

LMZ740>746-080500-
SOUTHERN LAKE MICHIGAN

STATION/POSITION SKY/WX   TEMP    WIND        PRES    VSBY  WAVE
                          AIR SEA DIR/SP/G                  HT/PER
                          (F)     (DEG/KT/KT) (MB)    (MI)  (FT/S)
HARRISON CRIB              58     350/ 13/ 16   N/A
BURNHAM HARBOR             58     360/  9/ 12   N/A
CALUMET HARBOR             58     350/  7/ 10   N/A
BURNS HARBOR               62      20/ 16/ 20 1019.3R
MICHIGAN CITY              61     350/ 23/ 25   N/A
MICHIGAN CITY 6N           61 65   30/ 14/ 19   N/A           6/ 7
ST. JOSEPH                 60 61   70/ 14/ 16   N/A           5/ 2
$$

ILZ025>027-034>036-040-047-049-050-058-095>099-080500-
WEST-CENTRAL ILLINOIS

CITY           SKY/WX    TMP DP  RH WIND       PRES   REMARKS
QUINCY         CLOUDY    67  63  87 S3        30.08R FOG
GALESBURG*     MOCLDY    59  56  91 NE3       30.09S
MACOMB*        MOCLDY    62  60  95 NE3       30.10S
JACKSONVILLE*  CLOUDY    66  64  91 CALM      30.08S
PITTSFIELD*    CLOUDY    67  63  85 CALM      30.09R
$$

ILZ028>032-037-038-041>044-048-051>054-059>061-080500-
CENTRAL ILLINOIS

CITY           SKY/WX    TMP DP  RH WIND       PRES   REMARKS
PONTIAC        PTCLDY    58  54  88 E5        30.12R
BLOOMINGTON    PTCLDY    57  53  86 E8        30.12R
DECATUR        CLOUDY    63  55  75 NE7       30.09R
PEORIA         PTCLDY    66  57  72 E6        30.09R
LACON*         MOCLDY    59  54  82 E7        30.10R
LINCOLN*       MOCLDY    61  56  84 E3        30.10R
SPRINGFIELD    CLOUDY    67  57  70 E8        30.09R
TAYLORVILLE    CLOUDY    63  54  72 NE6       30.09R
$$

ILZ033-039-045-046-055>057-062-063-080500-
EAST-CENTRAL ILLINOIS

CITY           SKY/WX    TMP DP  RH WIND       PRES   REMARKS
CHAMPAIGN      MOCLDY    60  53  77 NE7       30.09R
DANVILLE*      PTCLDY    55  53  92 N5        30.06S
RANTOUL*       MOCLDY    60  54  79 NE6       30.10S
MATTOON        CLOUDY    63  53  70 NE9       30.07R
PARIS*         CLOUDY    63  54  74 N3        30.09R
$$

ILZ079-100>102-080500-
SOUTHWEST ILLINOIS

CITY           SKY/WX    TMP DP  RH WIND       PRES   REMARKS
ALTON          CLOUDY    66  66 100 CALM      30.08R
BELLEVILLE     DRIZZLE   66  64  94 NE2       30.06R FOG
CAHOKIA*       LGT RAIN  65  63  93 E6        30.07F FOG
SPARTA*        CLOUDY    64  63  97 N7        30.07S
$$

ILZ064>066-069>071-074>076-080>082-084>086-088>090-092>094-080500-
SOUTH-CENTRAL ILLINOIS

CITY           SKY/WX    TMP DP  RH WIND       PRES   REMARKS
CARBONDALE     LGT RAIN  68  67  96 N7        30.05R
CAIRO*         CLOUDY    73  72  95 CALM      30.04R
EFFINGHAM*     CLOUDY    65  54  66 CALM      30.09R
MARION         DRIZZLE   70  68  94 NE7       30.04F
MT. VERNON     CLOUDY    64  59  82 NE5       30.07R
CENTRALIA*     DRIZZLE   64  60  89 CALM      30.07S
SALEM*         CLOUDY    68  58  70 NE3       30.07R
$$

ILZ067-068-072-073-078-083-087-091-080500-
SOUTHEAST ILLINOIS

CITY           SKY/WX    TMP DP  RH WIND       PRES   REMARKS
LAWRENCEVILLE  CLOUDY    66  61  84 N9        30.06R
FLORA*         CLOUDY    66  59  78 NE7       30.06S
FAIRFIELD*     CLOUDY    65  64  97 N5        30.05R
HARRISBURG*    LGT RAIN  69  69 100 N3        30.06S
ROBINSON*      CLOUDY    65  58  77 NE7       30.07S
CARMI*         LGT RAIN  68  63  83 N8        30.04S
$$

ABBREVIATIONS USED IN REMARKS
   TC - TEMPERATURE IN CELSIUS
  WCI - WIND CHILL INDEX
   HX - HEAT INDEX
  VSB - VISIBILITY
$$



USA.gov is the U.S. government's official web portal to all federal, state and local government web resources and services.